Regional Weather Roundup
Issued by NWS

Home | Current Version | Previous Version | Graphics & Text | Print | Product List | Glossary On
Versions: 1 2 3 4 5 6 7 8 9 10 11 12 13 14 15 16 17 18 19 20 21 22 23 24 25 26 27 28 29 30 31 32 33 34 35 36 37 38 39 40 41 42 43 44 45 46 47 48 49 50
000
ASUS43 KDTX 281101
RWRMI
MICHIGAN HOURLY REGIONAL WEATHER ROUNDUP
NATIONAL WEATHER SERVICE DETROIT/PONTIAC MI
700 AM EDT FRI AUG 28 2015

NOTE: "FAIR" INDICATES FEW OR NO CLOUDS BELOW 12,000 FEET WITH NO
SIGNIFICANT WEATHER AND/OR OBSTRUCTION TO VISIBILITY.

MIZ047>049-052>055-059>063-066>070-074>076-081>083-281200-
SOUTHEAST LOWER MICHIGAN

CITY           SKY/WX    TMP DP  RH WIND       PRES   REMARKS
ADRIAN         CLOUDY    49  46  90 CALM      30.20S
ALMA           FOG       47  47 100 CALM      30.18S VSB 1/4
ANN ARBOR      FOG       42  42 100 CALM      30.20R VSB 1/4
BAD AXE        CLOUDY    52  51  97 CALM      30.20S
CARO           FOG       49  48  99 CALM      30.19S VSB 3/4
DETROIT CITY   CLEAR     52  49  89 CALM      30.20R
DETROIT        MOCLDY    54  51  90 CALM      30.20S
FLINT          CLEAR     49  46  90 CALM      30.21R FOG
GROSSE ILE     CLEAR     55  52  88 CALM      30.19R
HILLSDALE      MOCLDY    56  56 100 S5        30.19S FOG
HOWELL         CLEAR     46  45  98 CALM      30.20R FOG

CITY           SKY/WX    TMP DP  RH WIND       PRES   REMARKS
JACKSON        PTCLDY    53  52  96 CALM      30.19S
LAMBERTVILLE   PTCLDY    50  48  92 CALM      30.20S FOG
LANSING        PTCLDY    49  47  93 E3        30.19S
LAPEER         FAIR      44  44 100 CALM      30.21R FOG
MASON          PTCLDY    45  44  99 CALM      30.19S FOG
MONROE         FOG       48  47  97 CALM      30.19S VSB 1
MT. CLEMENS    MOCLDY    50  49  97 NE3       30.19R
PONTIAC        PTCLDY    48  47  96 CALM      30.20R
PORT HOPE        N/A     57  52  83 SW7       30.17S
PORT HURON     PTCLDY    45  45 100 CALM      30.22R
TRI CITIES     PTCLDY    56  52  86 S6        30.19F
MIDLAND        FAIR      51  49  95 CALM      30.17F FOG
TROY           CLEAR     52  50  92 CALM      30.22R
SAGINAW HB     PTCLDY    52  52 100 S5        30.18S
$$
MIZ043>046-050>051-056>058-064>065-071>073-077>080-281200-
SOUTHWEST LOWER MICHIGAN

CITY           SKY/WX    TMP DP  RH WIND       PRES   REMARKS
BATTLE CREEK   CLEAR     56  53  90 SE5       30.17F
BENTON HARBOR  CLEAR     56  54  93 SE6       30.14S
BIG RAPIDS     FOG       50  49  97 CALM      30.16S VSB<1/4
COLDWATER      CLEAR     55  55 100 SE5       30.17F FOG
FREMONT        FAIR      52  52 100 SE3       30.15S
HOLLAND        CLEAR     54  51  90 SE3       30.15S
GRAND RAPIDS   MOCLDY    52  51  97 S6        30.16F
IONIA          FOG       48  48 100 SE5       30.16F VSB 3/4
KALAMAZOO      CLEAR     56  53  90 S5        30.17S
LUDINGTON      PTCLDY    54  52  92 CALM      30.13S FOG
MARSHALL       CLEAR     53  52  95 CALM      30.17S FOG
MOUNT PLEASANT FOG       51  49  93 CALM      30.17S VSB 3/4
MUSKEGON       PTCLDY    54  51  90 SE7       30.15R
SOUTH HAVEN    CLEAR     56  54  94 CALM      30.14S
$$
MIZ016>042-281200-
NORTHERN LOWER MICHIGAN

CITY           SKY/WX    TMP DP  RH WIND       PRES   REMARKS
ALPENA         FOG       47  46  97 CALM      30.15S VSB 1/4
BEAVER ISLAND  CLEAR     63  58  83 SW6       30.10S
BELLAIRE       MOCLDY    49  48  96 CALM      30.14S FOG
CADILLAC       PTCLDY    48  45  88 CALM      30.15S FOG
CHARLEVOIX     MOCLDY    59  58  96 SE3       30.15S
FRANKFORT      CLEAR     52  51  97 CALM      30.12S FOG
GAYLORD        CLEAR     53  51  93 CALM      30.15S
GRAYLING       CLEAR     43  42  95 CALM      30.16S
HARBOR SPRINGS MOCLDY    53  52  96 CALM      30.13S
HOUGHTON LAKE  CLEAR     56  54  93 S5        30.16F
MANISTEE       CLEAR     52  46  82 E3        30.14R
OSCODA         CLOUDY    56  55  97 SW7       30.15S
PELLSTON       CLEAR     48  47  96 CALM      30.12S
ROGERS CITY    CLEAR     55  53  93 SW7       30.14S
TRAVERSE CITY  PTCLDY    59  54  83 CALM      30.12S
$$
MIZ007>008-015-281200-
EASTERN UPPER MICHIGAN

CITY           SKY/WX    TMP DP  RH WIND       PRES   REMARKS
KINROSS        CLOUDY    57  57 100 S5        30.10S VSB<1/4
MACKINAC ISLAN PTCLDY    59  58  94 S6        30.11R
NEWBERRY       MOCLDY    57  56  97 S7        30.08R
S. S. MARIE    FOG       56  55  97 E5        30.10R VSB 1/2
$$
MIZ004>006-011>014-085-281200-
CENTRAL UPPER MICHIGAN

CITY           SKY/WX    TMP DP  RH WIND       PRES   REMARKS
MANISTIQUE     CLEAR     61  57  88 SW7       30.07S
ESCANABA       CLOUDY    57  54  88 CALM      30.07R
MENOMINEE      PTCLDY    61  54  77 SW6       30.08R
SAWYER-GWINN   PTCLDY    55  54  94 S5        30.05F
$$
MIZ001>003-009>011-084-281200-
WESTERN UPPER MICHIGAN

CITY           SKY/WX    TMP DP  RH WIND       PRES   REMARKS
IRON MOUNTAIN  CLOUDY    57  55  93 CALM      30.06S
HOUGHTON       PTCLDY    57  54  89 SW3       30.00S
COPPER HARBOR    N/A     62  55  77 VRB3      29.98S
IRONWOOD       PTCLDY    63  57  82 SW3       29.99S
$$

ABBREVIATIONS USED IN REMARKS
   TC - TEMPERATURE IN CELSIUS
  WCI - WIND CHILL INDEX
   HX - HEAT INDEX
  VSB - VISIBILITY




USA.gov is the U.S. government's official web portal to all federal, state and local government web resources and services.